KE5KZS Weather Reports


Display with metric or nautical units.
time (UTC)temp
F
wind
direction
speed
MPH
gust
MPH
rain 1hr
in
rain 24hr
in
rain mn
in
humidity
%
barometer
mb
20260508164016 73 180 4.0 8.0 0.00 0.55 0.55 72 1011.7
20260508163016 72 158 3.0 5.0 0.00 0.55 0.55 72 1012.0
20260508162023 72 180 2.0 6.0 0.00 0.55 0.55 73 1012.2
20260508161016 72 180 3.0 6.0 0.00 0.55 0.55 72 1012.3
20260508160016 71 135 3.0 9.0 0.00 0.55 0.55 75 1012.3
20260508155016 70 158 3.0 8.0 0.00 0.55 0.55 74 1012.3
20260508154016 69 158 3.0 6.0 0.00 0.55 0.55 75 1012.5
20260508153016 68 158 3.0 8.0 0.00 0.55 0.55 78 1012.6
20260508152016 67 158 3.0 8.0 0.00 0.55 0.55 83 1012.7
20260508151016 65 158 3.0 6.0 0.00 0.55 0.55 83 1012.6
20260508150016 65 113 2.0 3.0 0.00 0.55 0.55 85 1012.9
20260508145516 64 113 1.0 4.0 0.00 0.55 0.55 85 1013.0
20260508144516 64 113 1.0 2.0 0.00 0.55 0.55 86 1013.0
20260508143516 64 135 2.0 6.0 0.00 0.55 0.55 87 1013.1
20260508142516 63 158 1.0 3.0 0.00 0.55 0.55 90 1013.0
20260508141516 63 0.0 1.0 0.00 0.55 0.55 91 1013.3
20260508140516 63 135 1.0 3.0 0.00 0.55 0.55 91 1013.3
20260508135516 62 135 2.0 7.0 0.00 0.55 0.55 92 1013.1
20260508134505 62 158 3.0 7.0 0.00 0.55 0.55 93 1012.9
20260508134036 62 158 3.0 7.0 0.00 0.55 0.55 93 1012.9
20260508133016 62 158 4.0 8.0 0.01 0.55 0.55 94 1012.9
20260508132016 62 135 2.0 5.0 0.02 0.55 0.55 94 1012.9
20260508131016 61 0.0 3.0 0.03 0.55 0.55 94 1012.9
20260508130016 60 0.0 2.0 0.03 0.55 0.55 94 1013.0
20260508125016 60 135 1.0 4.0 0.05 0.55 0.55 94 1013.2
20260508124016 60 135 1.0 3.0 0.05 0.55 0.55 94 1013.3
20260508123016 60 0.0 0.0 0.04 0.54 0.54 93 1013.1
20260508122016 60 0.0 0.0 0.03 0.53 0.53 93 1013.5
20260508121016 60 0.0 3.0 0.02 0.52 0.52 93 1013.4
20260508120016 60 135 1.0 5.0 0.02 0.52 0.52 93 1012.9
20260508115016 60 203 2.0 6.0 0.00 0.50 0.50 93 1013.9
20260508114037 60 0.0 2.0 0.00 0.50 0.50 94 1013.1
20260508113016 60 0.0 0.0 0.00 0.50 0.50 93 1013.5
20260508112016 60 0.0 2.0 0.13 0.50 0.50 93 1013.3
20260508111036 60 0.0 1.0 0.39 0.50 0.50 93 1013.1
20260508110016 60 135 2.0 5.0 0.39 0.50 0.50 93 1012.7
20260508105036 60 0.0 1.0 0.40 0.50 0.50 93 1013.0
20260508104036 60 0.0 0.0 0.40 0.50 0.50 93 1012.7
20260508103016 60 0.0 2.0 0.42 0.50 0.50 92 1012.8
20260508102016 60 0 1.0 3.0 0.29 0.37 0.39 92 1013.2
20260508101016 60 0.0 2.0 0.03 0.11 0.11 92 1013.4
20260508100016 60 0.0 1.0 0.03 0.11 0.11 92 1012.8
20260508095016 60 0.0 1.0 0.02 0.10 0.10 92 1012.6
20260508094016 60 0 1.0 3.0 0.02 0.10 0.10 92 1012.4
20260508093016 60 0.0 2.0 0.00 0.08 0.08 92 1012.8
20260508092016 60 0.0 0.0 0.01 0.08 0.08 91 1012.7
20260508091016 60 0.0 0.0 0.01 0.08 0.08 91 1012.5
20260508090016 60 0.0 1.0 0.01 0.08 0.08 91 1012.7
20260508085016 60 0.0 1.0 0.02 0.08 0.08 90 1013.0
20260508084016 60 0.0 1.0 0.02 0.08 0.08 90 1013.1
20260508083016 60 0.0 1.0 0.03 0.08 0.08 89 1013.1
20260508082016 60 0.0 1.0 0.03 0.07 0.07 89 1013.4
20260508081016 60 0.0 2.0 0.06 0.07 0.07 89 1013.9
20260508080016 61 135 2.0 4.0 0.07 0.07 0.07 88 1013.9
20260508075016 61 0.0 2.0 0.06 0.06 0.06 87 1013.1
20260508074036 61 135 1.0 2.0 0.06 0.06 0.06 86 1013.5
20260508073016 62 135 1.0 3.0 0.05 0.05 0.05 85 1014.3
20260508072016 62 0.0 1.0 0.04 0.04 0.04 83 1014.3
20260508071016 62 135 1.0 3.0 0.01 0.01 0.01 82 1015.0
20260508070016 62 0.0 0.0 0.00 0.00 0.00 80 1014.3
20260508065016 62 135 1.0 2.0 0.00 0.00 0.00 80 1013.9
20260508064016 62 0.0 1.0 0.00 0.00 0.00 79 1014.0
20260508063016 62 0.0 0.0 0.00 0.00 0.00 77 1014.4
20260508062016 62 0.0 0.0 0.00 0.00 0.00 77 1014.6
20260508061016 63 0.0 0.0 0.00 0.00 0.00 77 1014.5
20260508060516 63 0.0 1.0 0.00 0.00 0.00 77 1014.5
20260508055516 63 0.0 1.0 0.00 0.00 0.00 74 1014.8
20260508054516 62 135 1.0 2.0 0.00 0.00 0.00 74 1014.5
20260508053536 62 135 1.0 3.0 0.00 0.00 0.00 75 1014.4
20260508052536 62 0.0 1.0 0.00 0.00 0.00 75 1014.3
20260508051516 62 135 1.0 3.0 0.00 0.00 0.00 76 1014.4
20260508050516 62 0.0 0.0 0.00 0.00 0.00 78 1014.4
20260508045516 62 0.0 0.0 0.00 0.00 0.00 77 1014.4
20260508044517 62 0.0 0.0 0.00 0.00 0.00 77 1014.6
20260508043516 62 0.0 0.0 0.00 0.00 0.00 77 1014.6
20260508042516 62 0.0 0.0 0.00 0.00 0.00 76 1014.4
20260508041517 63 0.0 0.0 0.00 0.00 0.00 76 1014.4
20260508040536 63 0.0 0.0 0.00 0.00 0.00 73 1014.4
20260508035537 63 0.0 0.0 0.00 0.00 0.00 72 1014.4
20260508034537 64 0.0 0.0 0.00 0.00 0.00 71 1014.3
20260508033516 64 0.0 1.0 0.00 0.00 0.00 69 1014.2
20260508032537 64 0.0 2.0 0.00 0.00 0.00 69 1014.1
20260508031516 65 135 1.0 2.0 0.00 0.00 0.00 68 1014.0
20260508030516 65 135 1.0 3.0 0.00 0.00 0.00 68 1014.0
20260508025516 65 158 1.0 4.0 0.00 0.00 0.00 68 1013.9
20260508024601 65 158 2.0 5.0 0.00 0.00 0.00 67 1014.0
20260508023516 66 158 2.0 5.0 0.00 0.00 0.00 67 1013.8
20260508022516 66 158 2.0 5.0 0.00 0.00 0.00 67 1013.5
20260508021517 66 158 3.0 6.0 0.00 0.00 0.00 66 1013.6
20260508020537 66 158 2.0 5.0 0.00 0.00 0.00 66 1013.4
20260508015517 67 158 2.0 5.0 0.00 0.00 0.00 66 1013.2